Miscellaneous Local Product
Issued by NWS Hastings, NE

Home | Current Version | Previous Version | Text Only | Print | Product List | Glossary On
Versions: 1 2 3 4 5 6 7 8 9 10 11 12 13 14 15 16 17 18 19 20 21 22 23 24 25 26 27 28 29 30 31 32 33 34 35 36 37 38 39 40 41 42 43 44 45 46 47 48 49 50
000
AXUS43 KGID 302002
MISGRI

GID CWA HOURLY WEATHER ROUNDUP
NATIONAL WEATHER SERVICE HASTINGS NE
300 PM CDT THU MAR 30 2017

NOTE: "FAIR" INDICATES FEW OR NO CLOUDS BELOW 12,000 FEET WITH NO
SIGNIFICANT WEATHER AND/OR OBSTRUCTIONS TO VISIBILITY.

...SOUTH CENTRAL NEBRASKA...

CITY           SKY/WX    TMP DP  RH WIND       PRES   REMARKS
GRAND ISLAND   CLOUDY    44  39  82 N16       29.75F
HASTINGS       CLOUDY    44  38  79 N20       29.75F
KEARNEY        CLOUDY    46  36  66 N13       29.77S
ORD            CLOUDY    44  35  70 N10       29.76F
YORK           CLOUDY    43  41  93 N12G23    29.74S
AURORA         CLOUDY    42  40  91 N15       29.75S
LEXINGTON      CLOUDY    42  36  78 N9        29.78F
HOLDREGE       CLOUDY    44  37  76 N8        29.76F
HEBRON         CLOUDY    44  40  84 N16       29.72F

...NEBRASKA PANHANDLE...

CITY           SKY/WX    TMP DP  RH WIND       PRES   REMARKS
CHADRON        CLOUDY    56  38  50 SE10      29.71F
ALLIANCE       CLOUDY    50  37  61 SE10      29.72F
SCOTTSBLUFF    SUNNY     56  40  55 SE9       29.71F
SIDNEY         SUNNY     57  41  55 E9        29.72F

...WESTERN AND NORTH CENTRAL NEBRASKA...

CITY           SKY/WX    TMP DP  RH WIND       PRES   REMARKS
VALENTINE      CLOUDY    42  33  70 SE5       29.79F
AINSWORTH      CLOUDY    41  35  80 N6        29.80F
ONEILL         CLOUDY    42  37  82 N9        29.79S
BROKEN BOW     CLOUDY    42  34  73 N7        29.77F
IMPERIAL       SUNNY     54  34  46 CALM      29.74F
NORTH PLATTE   MOSUNNY   48  36  63 E7        29.76F
MCCOOK         PTSUNNY   48  38  68 MISG      29.76F

...EASTERN NEBRASKA...

CITY           SKY/WX    TMP DP  RH WIND       PRES   REMARKS
NORFOLK        CLOUDY    42  36  79 N12       29.76R
SO SIOUX CITY  CLOUDY    44  39  82 NE12      29.76S
TEKAMAH        CLOUDY    44  39  82 N15       29.73F
COLUMBUS       CLOUDY    43  37  81 N15       29.75F
ALBION         CLOUDY    44  37  78 N10G17    29.77S
OMAHA EPPLEY   CLOUDY    44  38  79 N17       29.70F
OFFUTT AFB     CLOUDY    44  39  85 N13G20    29.69F
MILLARD        CLOUDY    46  41  83 N10G20    29.71S
LINCOLN        CLOUDY    45  41  86 N17       29.72S
NEBRASKA CITY  CLOUDY    42  42 100 N18       29.68S
BEATRICE       CLOUDY    44  42  93 N15       29.70S
FALLS CITY     LGT RAIN  44  42  93 N16G22    29.65R FOG

...NORTHERN KANSAS...

CITY           SKY/WX    TMP DP  RH WIND       PRES   REMARKS
GOODLAND       SUNNY     55  41  59 N6        29.74F
HILL CITY      CLOUDY    45  38  76 N10       29.79F
NORTON         CLOUDY    41  34  75 NW9       29.77S
PHILLIPSBURG   CLOUDY    48  39  71 NW14      29.76F
HAYS             N/A     48  39  71 NW9G20    29.76F
RUSSELL        CLOUDY    47  39  74 NW16      29.74F
CONCORDIA      CLOUDY    44  41  89 N14       29.72S
SALINA         CLOUDY    47  42  83 N14       29.73S
TOPEKA         CLOUDY    47  45  93 N15       29.64R



USA.gov is the U.S. government's official web portal to all federal, state and local government web resources and services.